Погода в Прудках

Россия / Калужская область     54°46′02″N   36°28′31″E
темп.,
°C
ветер,
м/с
пор.,
м/с
влажн.,
%
обл.,
%
осадки,
мм/ч
давл.,
гПа
погр.,
м
25 июля, вс
вс2500:00+12ссз12697 0.0 101812
03:00+10с11785 0.0 101910
06:00+12в00705 0.0 102010
09:00+20с00444 0.0 1020561
12:00+24ю013493 0.0 10202474
15:00+21всв2245100 0.0 1021709
18:00+22ююз114041 0.0 1021805
21:00+16ююв22634 0.0 102118
26 июля, пн
пн2600:00+15ююв116295 0.0 102314
03:00+16юв1159100 0.0 102311
06:00+16юв2262100 0.0 102341
09:00+18ю2360100 0.0 1023128
12:00+22ююз245057 0.0 1023723
15:00+26з3438100 0.0 10222429
18:00+22зсз2258100 0.0 102233
21:00+20юз005917 0.0 102211
27 июля, вт
вт2700:00+18юз227591 0.0 102330
03:00+17зюз228194 0.2 102338
06:00+17зсз11838 0.4 102325
09:00+22юз226490 0.4 1022336
12:00+27зюз22436 0.0 10212003
15:00+24ююз115498 0.0 102013
18:00+19в37793 0.7 1020138
21:00+18ююв348781 1.6 101970
28 июля, ср
ср2800:00+18ю248990 0.4 101986
03:00+16ююз22907 0.5 101839
06:00+16юз2689100 0.0 1017133
09:00+21ю2468100 0.0 1016324
12:00+21зюз3572100 0.0 1016461
15:00+18юв41094100 2.1 1014560
18:00+19ю4118892 0.3 1011721
21:00+18ююв3109586 0.8 1009328
29 июля, чт
чт2900:00+18юз4898100 0.1 1008283
03:00+17з4119948 0.1 1008382
06:00+16з413950 0.0 1008428
09:00+22з510710 0.0 1008763
12:00+26зсз6945100 0.0 10081888
15:00+28зсз69397 0.0 10082394
18:00+26зсз58435 0.0 10082057
21:00+20зюз36670 0.0 100897